• Join FlightAware (Why Join?)
  • Login
  • US Flag 
02:37PM EDT


 

Airport Tracker/Info


-or-


 

Live Flight TrackerFlight Track Log ✈ ELJ918 ✈ 04-May-2012 ✈ KTUL - KOMA

Flight Track Log - Related Links

Times and Time Zones

All times are in EDT time to prevent confusion due to time zone crossing. See the ELJ918 flight status page for this flight to view local times or setup timezone preferences in your user account.

Time Position Orientation Groundspeed Altitude Reporting Facility
EDT Latitude Longitude Course Direction KTS MPH feet Rate Location/Type
09:41AM 36.1778 -95.8853 150° Southeast 141 162 1,500  Level Kansas City Center
09:42AM 36.1447 -95.8617 41° Northeast 212 244 4,300 3,240 Climbing Kansas City Center
09:43AM 36.1869 -95.8161 North 248 285 7,500 3,360 Climbing Kansas City Center
09:44AM 36.2331 -95.8092 North 259 298 9,600 3,480 Climbing Kansas City Center
09:45AM 36.3144 -95.7975 358° North 281 323 13,200 3,600 Climbing Kansas City Center
09:46AM 36.4106 -95.8017 355° North 312 359 16,800 3,300 Climbing Kansas City Center
09:48AM 36.6314 -95.8233 356° North 366 421 23,200 2,760 Climbing Kansas City Center
09:49AM 36.7503 -95.8333 355° North 400 460 25,200 2,040 Climbing Kansas City Center
09:50AM 36.8772 -95.8458 355° North 429 494 27,300 2,040 Climbing Kansas City Center
09:51AM 37.0064 -95.8586 355° North 452 520 29,300 1,800 Climbing Kansas City Center
09:52AM 37.1378 -95.8739 356° North 462 532 30,900 1,800 Climbing Kansas City Center
09:53AM 37.2689 -95.8867 356° North 468 539 33,000 2,280 Climbing Kansas City Center
09:54AM 37.3919 -95.8967 354° North 463 533 35,500 1,980 Climbing Kansas City Center
09:55AM 37.5128 -95.9119 356° North 444 511 37,000 1,200 Climbing Kansas City Center
09:56AM 37.6317 -95.9222 353° North 438 504 38,000 1,020 Climbing Kansas City Center
09:57AM 37.7544 -95.9400 354° North 438 504 39,100 960 Climbing Kansas City Center
09:58AM 37.8772 -95.9556 356° North 443 510 40,000 900 Climbing Kansas City Center
09:59AM 38.0022 -95.9658 355° North 443 510 41,000 960 Climbing Kansas City Center
10:00AM 38.1128 -95.9786 356° North 443 510 42,000 900 Climbing Kansas City Center
10:01AM 38.2314 -95.9889 355° North 443 510 42,900 480 Climbing Kansas City Center
10:02AM 38.3647 -96.0050 356° North 437 503 43,000  Climbing Kansas City Center
10:03AM 38.4917 -96.0153 354° North 442 509 43,000  Level Kansas City Center
10:04AM 38.6019 -96.0308 356° North 447 514 43,000 -300 Level Kansas City Center
10:05AM 38.7250 -96.0414 354° North 440 506 42,500 -1,020 Descending Kansas City Center
10:06AM 38.8456 -96.0572 355° North 440 506 41,000 -2,100 Descending Kansas City Center
10:07AM 38.9808 -96.0736 355° North 445 512 38,300 -2,580 Descending Kansas City Center
10:08AM 39.1100 -96.0869 355° North 445 512 35,900 -2,100 Descending Kansas City Center
10:09AM 39.2350 -96.1006 356° North 448 516 34,100 -960 Descending Kansas City Center
10:10AM 39.3472 -96.1111 355° North 453 521 34,000 -1,080 Descending Kansas City Center
10:11AM 39.4764 -96.1247 354° North 459 528 32,000 -2,700 Descending Kansas City Center
10:12AM 39.6200 -96.1439 356° North 465 535 28,600 -3,180 Descending Kansas City Center
10:13AM 39.7469 -96.1550 355° North 460 529 25,700 -1,380 Descending Kansas City Center
10:15AM 40.0444 -96.1892 355° North 459 528 23,900 -900 Descending Minneapolis Center
10:16AM 40.1667 -96.2025 11° North 454 522 22,600 -1,680 Descending Minneapolis Center
10:17AM 40.2672 -96.1769 North 444 511 21,000 -1,920 Descending Minneapolis Center
10:18AM 40.3775 -96.1681 North 434 499 19,400 -1,800 Descending Minneapolis Center
10:19AM 40.4964 -96.1542 North 425 489 17,600 -1,740 Descending Minneapolis Center
10:20AM 40.6114 -96.1372 North 409 471 16,000 -1,140 Descending Minneapolis Center
10:21AM 40.7219 -96.1228 North 405 466 15,400 -960 Descending Minneapolis Center
10:22AM 40.8367 -96.1114 North 400 460 14,100 -1,440 Descending Minneapolis Center
10:23AM 40.9450 -96.0994 North 389 448 12,600 -1,680 Descending Minneapolis Center
10:24AM 41.0472 -96.0847 North 360 414 10,800 -1,500 Descending Minneapolis Center
10:25AM 41.1347 -96.0800 360° North 298 343 9,600 -1,800 Descending Minneapolis Center
10:26AM 41.2161 -96.0808 360° North 285 328 7,200 -2,340 Descending Minneapolis Center
10:27AM 41.2972 -96.0814 353° North 288 331 5,000 -2,040 Descending Minneapolis Center
10:28AM 41.3717 -96.0928 41° Northeast 290 334 3,100 -1,020 Descending Minneapolis Center
10:29AM 41.4147 -96.0422 112° Southeast 211 243 3,000 -60 Descending Minneapolis Center
10:30AM 41.3992 -95.9917 112° Southeast 149 171 3,000  Level Minneapolis Center